CW4198 Weather Reports


time (UTC)temp
C
wind
direction
speed
KPH
gust
KPH
rain 1hr
cm
rain 24hr
cm
rain mn
cm
humidity
%
barometer
mb
20180821175841 29 177 4.8 8.0 0.00 0.00 0.00 21 1010.8
20180821173841 29 164 0.0 0.0 0.00 0.00 0.00 22 1010.8
20180821171841 29 209 4.8 11.3 0.00 0.00 0.00 22 1010.8
20180821170841 30 178 8.0 14.5 0.00 0.00 0.00 21 1010.8
20180821163830 30 223 8.0 8.0 0.00 0.00 0.00 20 1009.8
20180821162830 30 199 8.0 16.1 0.00 0.00 0.00 19 1009.8
20180821161830 31 168 8.0 17.7 0.00 0.00 0.00 18 1009.8
20180821160830 32 157 20.9 27.4 0.00 0.00 0.00 18 1009.8
20180821155830 33 141 8.0 16.1 0.00 0.00 0.00 17 1009.8
20180821153830 35 357 4.8 12.9 0.00 0.00 0.00 14 1009.8
20180821144830 36 271 3.2 8.0 0.00 0.00 0.00 13 1010.8
20180821143830 36 290 6.4 8.0 0.00 0.00 0.00 13 1010.8
20180821142830 36 246 4.8 8.0 0.00 0.00 0.00 13 1010.8
20180821141830 36 267 0.0 4.8 0.00 0.00 0.00 13 1010.8
20180821140830 36 181 0.0 0.0 0.00 0.00 0.00 13 1010.8
20180821135830 36 204 8.0 8.0 0.00 0.00 0.00 16 1010.8
20180821134830 36 303 4.8 8.0 0.00 0.00 0.00 13 1010.8
20180821133830 36 287 8.0 9.7 0.00 0.00 0.00 16 1011.8
20180821132830 36 274 12.9 12.9 0.00 0.00 0.00 16 1011.8
20180821131830 35 294 3.2 8.0 0.00 0.00 0.00 16 1011.8
20180821125832 33 302 0.0 0.0 0.00 0.00 0.00 17 1012.8
20180821112843 33 240 0.0 4.8 0.00 0.00 0.00 17 1012.8
20180821105843 33 192 0.0 0.0 0.00 0.00 0.00 17 1012.8
20180821104843 32 224 0.0 0.0 0.00 0.00 0.00 18 1012.8
20180821102810 31 248 0.0 0.0 0.00 0.00 0.00 19 1012.8
20180821101810 30 235 0.0 0.0 0.00 0.00 0.00 20 1012.8
20180821095810 30 263 0.0 0.0 0.00 0.00 0.00 21 1013.8
20180821093810 29 179 0.0 0.0 0.00 0.00 0.00 22 1013.8
20180821091810 28 185 0.0 0.0 0.00 0.00 0.00 24 1013.8
20180821090810 27 185 0.0 0.0 0.00 0.00 0.00 25 1013.8
20180821085810 27 188 0.0 0.0 0.00 0.00 0.00 27 1013.8
20180821084810 26 179 0.0 0.0 0.00 0.00 0.00 30 1013.8
20180821083810 26 181 0.0 0.0 0.00 0.00 0.00 30 1013.8
20180821082810 25 198 0.0 0.0 0.00 0.00 0.00 31 1013.8
20180821080810 24 177 0.0 0.0 0.00 0.00 0.00 32 1012.8
20180821074810 23 192 0.0 0.0 0.00 0.00 0.00 34 1012.8
20180821072810 22 195 0.0 0.0 0.00 0.00 0.00 37 1012.8
20180821065810 21 162 8.0 8.0 0.00 0.00 0.00 41 1012.8
20180821064810 21 204 6.4 8.0 0.00 0.00 0.00 42 1012.8
20180821061810 20 185 0.0 8.0 0.00 0.00 0.00 39 1012.8
20180821051757 21 159 4.8 6.4 0.00 0.00 0.00 33 1012.8
20180821045757 22 183 0.0 0.0 0.00 0.00 0.00 31 1011.8
20180821043757 23 175 4.8 8.0 0.00 0.00 0.00 30 1011.8
20180821042757 23 72 0.0 0.0 0.00 0.00 0.00 30 1011.8
20180821041757 23 50 0.0 0.0 0.00 0.00 0.00 30 1011.8
20180821035747 23 7 0.0 0.0 0.00 0.00 0.00 30 1011.8
20180821034747 23 5 0.0 0.0 0.00 0.00 0.00 30 1011.8
20180821031747 23 270 0.0 0.0 0.00 0.00 0.00 31 1011.8
20180821030747 23 270 0.0 0.0 0.00 0.00 0.00 31 1011.8
20180821025746 23 270 0.0 0.0 0.00 0.00 0.00 31 1011.8
20180821024747 23 270 0.0 0.0 0.00 0.00 0.00 31 1011.8
20180821022747 23 270 0.0 0.0 0.00 0.00 0.00 31 1011.8
20180821021746 23 270 0.0 0.0 0.00 0.00 0.00 30 1011.8
20180821020747 23 270 0.0 0.0 0.00 0.00 0.00 30 1011.8
20180821015746 23 270 0.0 0.0 0.00 0.00 0.00 29 1011.8
20180821014746 23 270 0.0 0.0 0.00 0.00 0.00 28 1011.8
20180821013746 23 270 0.0 0.0 0.00 0.00 0.00 28 1011.8
20180821012746 23 270 0.0 0.0 0.00 0.00 0.00 27 1011.8
20180821011746 23 270 0.0 0.0 0.00 0.00 0.00 27 1011.8
20180821010746 23 270 0.0 0.0 0.00 0.00 0.00 26 1011.8
20180821004746 24 270 0.0 0.0 0.00 0.00 0.00 24 1011.8
20180821003746 25 270 0.0 0.0 0.00 0.00 0.00 23 1011.8
20180821001746 26 270 0.0 0.0 0.00 0.00 0.00 21 1011.8
20180820235746 27 270 0.0 0.0 0.00 0.00 0.00 21 1011.8
20180820232746 27 270 0.0 0.0 0.00 0.00 0.00 20 1011.8
20180820231746 27 275 0.0 0.0 0.00 0.00 0.00 20 1011.8
20180820225746 27 275 0.0 0.0 0.00 0.00 0.00 20 1011.8
20180820221746 28 276 0.0 0.0 0.00 0.00 0.00 19 1012.8
20180820220746 28 276 0.0 0.0 0.00 0.00 0.00 19 1012.8
20180820193756 32 238 0.0 8.0 0.00 0.00 0.00 17 1011.8
20180820192756 32 253 4.8 8.0 0.00 0.00 0.00 17 1011.8
20180820190756 33 272 8.0 8.0 0.00 0.00 0.00 17 1011.8
20180820184756 33 257 8.0 12.9 0.00 0.00 0.00 16 1011.8